Погода в Южном Урале

Россия / Оренбургская область     51°43′52″N   55°01′47″E
темп.,
°C
ветер,
м/с
пор.,
м/с
влажн.,
%
обл.,
%
осадки,
мм/ч
давл.,
гПа
погр.,
м
4 августа, ср
ср423:00+29з122975 0.0 101219
02:00+27юз222938 0.1 101221
05:00+25сз333082 0.1 101326
08:00+29ююв452635 0.0 1012163
11:00+37юз441575 0.0 10121101
14:00+40ююз341144 0.0 10114517
17:00+40з561123 0.0 10094024
20:00+36юв581599 0.0 1009295
5 августа, чт
чт523:00+29юв5924100 0.0 1009130
02:00+28ююв482592 0.0 1009156
05:00+26ююз2228100 0.0 100919
08:00+28юз242595 0.0 1009173
11:00+34ссз4419100 0.0 1009945
14:00+35с5323100 0.0 10091854
17:00+34ссз8625100 0.0 10081640
20:00+28ссз4844100 0.3 1009295
6 августа, пт
пт623:00+22св376382 0.3 1010136
02:00+21ссз397071 0.1 1011217
05:00+19с411765 0.1 1011261
08:00+21с7116654 0.0 1012460
11:00+27с78335 0.0 10141604
14:00+30с672367 0.0 10132275
17:00+30с6622100 0.0 10122420
20:00+28ссв68245 0.0 1013625
7 августа, сб
сб723:00+22с493624 0.0 1014141
02:00+19св37525 0.0 1015126
05:00+17ссв34618 0.0 101647
08:00+21ссв464855 0.0 1017229
11:00+27ссв56285 0.0 10161356
14:00+31ссв56214 0.0 10162019
17:00+31ссв66215 0.0 10152136
20:00+29ссв68235 0.0 1016556
8 августа, вс
вс823:00+22св41134100 0.0 1017229
02:00+20всв49445 0.0 1017157
05:00+18всв375064 0.0 1018116
08:00+22в463998 0.0 1019255
11:00+29вюв5625100 0.0 10181027
14:00+33вюв442191 0.0 10172066
17:00+34вюв33197 0.0 10162584
20:00+31юв2224100 0.0 101524